Location: Bathurst
(33.4193°S, 149.5775°E)
Time: 12:19:36
(UTC+10:00)

Explorer 7 - Pass Details

Date: 15 June 2021
Orbit: 484 x 676 km, 50.3° (Epoch: 02 August)

Event Time Altitude Azimuth Distance (km) Brightness Sun altitude
Rises 18:41:29 0° 246° (WSW) 2,843 11.3 -20.4°
Reaches altitude 10° 18:44:15 10° 263° (W) 1,972 10.6 -21.0°
Maximum altitude 18:47:29 19° 308° (NW) 1,487 9.8 -21.6°
Drops below altitude 10° 18:50:49 10° 354° (N) 2,035 9.9 -22.3°
Sets 18:53:44 0° 11° (N) 2,965 10.6 -22.9°
